[[{"header":{"parameterUnit":"m.s-1","parameterCategory":1,"la1":30.2991,"la2":30.254,"lo1":-89.0895,"lo2":-89.0444,"dy":0.0017,"dx":0.0017,"nx":28,"ny":28,"refTime":"2025-05-28T03:00:00:Z","depth":0,"parameterNumber":2,"parameterNumberName":"U-component_of_WINDS"},"data":[0,0,0,0,0,0,0,0,0,0,0,0,0,0,0,0,0,0,0,0,0,0,0,0,0,0,0,0,0,0,0,0,0,0,0,0,0,0,0,0,0,0,0,0,0,0,0,0,0,0,0,0,0,0,0,0,0,0,3.4845,3.4845,0,3.4886,3.4887,3.4887,3.4799,3.4796,3.4794,3.4791,3.4837,3.4841,3.4845,0,0,0,0,0,0,0,0,0,0,0,0,0,3.4691,3.4695,3.4845,3.4845,3.4846,3.4886,3.4887,3.4887,3.48,3.4796,3.4793,3.479,3.4836,3.484,3.4845,0,0,0,0,0,0,0,0,0,0,0,0,0,3.4748,3.4696,3.4845,3.4807,3.4804,3.4886,3.4887,3.4887,3.4801,3.4796,3.4792,3.4788,3.4834,3.484,3.4846,3.4967,0,0,3.4864,3.4866,0,0,0,0,0,0,0,0,3.4745,3.4754,3.4812,3.481,3.4807,3.4833,3.4849,3.4914,3.4802,3.4802,3.4791,3.4786,3.484,3.4845,3.4862,3.497,3.4972,3.4864,3.4868,3.487,3.4872,0,0,0,0,0,0,0,3.4741,3.4751,3.4861,3.4813,3.481,3.4788,3.4792,3.4861,3.4844,3.4802,3.4795,3.4801,3.4837,3.4856,3.4862,3.4972,3.4864,3.4869,3.4873,3.4875,3.5177,3.5181,0,0,0,0,0,0,3.4742,3.4749,3.486,3.4863,3.4764,3.4795,3.4798,3.4829,3.4843,3.4841,3.4805,3.4797,3.4849,3.4856,3.4864,3.5003,3.487,3.4876,3.4879,3.5172,3.5178,3.5183,0,0,0,0,0,0,3.4739,3.4752,3.4858,3.4804,3.4816,3.4802,3.4837,3.4832,3.4851,3.4846,3.4843,3.4828,3.4846,3.4855,3.4941,3.5004,3.4878,3.4883,3.5167,3.5174,3.518,3.5286,0,0,0,0,0,0,3.4735,3.4752,3.4798,3.4806,3.4819,3.4935,3.4841,3.4836,3.4861,3.4851,3.4866,3.4865,3.4843,3.4933,3.4947,3.5009,3.4888,3.5161,3.517,3.5178,3.5276,3.5295,3.5311,0,0,0,0,0,3.4729,3.4828,3.4801,3.4815,3.4876,3.4939,3.4946,3.4918,3.4867,3.4912,3.4908,3.4864,3.4995,3.4942,3.4957,3.5023,3.5157,3.5168,3.5178,3.5269,3.5292,3.5311,0,0,0,0,0,0,3.483,3.4828,3.4798,3.4902,3.4921,3.4924,3.4981,3.4944,3.4979,3.4969,3.4934,3.4938,3.5029,3.5035,3.4976,3.5139,3.5067,3.5081,3.5131,3.5153,3.517,3.5166,3.4893,0,0,0,0,0,3.4864,3.4915,3.4911,3.5003,3.5013,3.4996,3.5022,3.4998,3.5017,3.5025,3.5027,3.5048,3.5093,3.5124,3.5166,3.5277,3.5278,3.533,3.5347,3.5361,3.5373,3.5428,3.545,3.5216,3.5216,3.5216,0,0,3.4936,3.4941,3.4975,3.5023,3.5035,3.5087,3.5003,3.5063,3.5101,3.5035,3.5113,3.5116,3.5137,3.5235,3.5278,3.5242,3.5438,3.5374,3.5386,3.5389,3.5441,3.5463,3.5483,3.5223,3.5222,3.5221,0,0,3.5091,3.5102,3.5177,3.519,3.5208,3.5195,3.5213,3.5221,3.5219,3.5298,3.5247,3.5293,3.5373,3.5388,3.5406,3.5564,3.5524,3.5579,3.5669,3.5723,3.5742,3.5758,3.581,3.583,3.5591,3.5591,3.5592,0,3.5178,3.5254,3.5221,3.5282,3.5304,3.5244,3.5319,3.5333,3.5365,3.5381,3.534,3.5436,3.5446,3.5544,3.5582,3.5601,3.5619,3.5576,3.5742,3.5757,3.5772,3.5822,3.5842,3.5598,3.5597,3.5596,3.5596,0,3.5357,3.541,3.5469,3.5498,3.5526,3.5595,3.5572,3.5604,3.5578,3.5569,3.5648,3.5658,3.5698,3.5721,3.5697,3.5815,3.5791,3.5747,3.5674,3.5801,3.5847,3.5866,3.5607,3.5604,3.5603,3.5601,0,0,3.5578,3.5585,3.5606,3.5617,3.5631,3.5672,3.5737,3.5774,3.5801,3.5825,3.5877,3.5944,3.5902,3.5923,3.59,3.5948,3.6068,3.5897,3.5897,3.5925,3.6194,3.6225,3.6247,3.6042,3.6045,3.6048,3.6191,0,3.5728,3.5837,3.5808,3.5918,3.5964,3.5907,3.5963,3.5978,3.5971,3.601,3.6003,3.605,3.5992,3.6004,3.6049,3.6044,3.6121,3.6033,3.6088,3.609,3.6081,3.6272,3.6306,3.644,3.6209,3.6212,3.6214,0,3.5919,3.5946,3.6059,3.6061,3.608,3.6131,3.616,3.6199,3.6214,3.6205,3.6227,3.6194,3.6257,3.6185,3.627,3.6211,3.6232,3.6233,3.6237,3.6239,3.6158,3.6276,3.6482,3.6501,3.6243,3.6241,3.6239,0,3.6062,3.6128,3.6203,3.6214,3.622,3.6257,3.6261,3.6271,3.6295,3.6322,3.6336,3.6371,3.639,3.6417,3.6394,3.6344,3.6481,3.6408,3.6474,3.6475,3.6504,3.6502,3.6713,3.6523,3.6523,3.6523,3.6522,0,3.6232,3.6302,3.6267,3.6313,3.6389,3.6355,3.6432,3.643,3.6439,3.6483,3.6438,3.648,3.6448,3.6487,3.647,3.6541,3.6551,3.6545,3.6538,3.6547,3.6547,3.6558,3.6547,3.6528,3.6527,3.6526,3.6525,0,3.6405,3.6385,3.6461,3.646,3.6461,3.6517,3.6515,3.6557,3.6546,3.6602,3.6613,3.6597,3.664,3.662,3.6668,3.6655,3.6745,3.6729,3.6739,3.6734,3.6799,3.6792,3.7023,3.705,3.6846,3.6848,3.6849,0,3.6512,3.6564,3.6567,3.6592,3.6599,3.6641,3.6663,3.6631,3.6656,3.6675,3.6714,3.6754,3.6783,3.6855,3.6848,3.6882,3.6864,3.6943,3.6869,3.6874,3.6861,3.6856,3.686,3.6956,3.6959,3.6961,3.6962,0,3.6704,3.669,3.6723,3.6752,3.6779,3.6802,3.682,3.6843,3.6812,3.6843,3.6885,3.6908,3.6953,3.6992,3.7022,3.7026,3.6989,3.6986,3.7002,3.7009,3.7012,3.7007,3.6776,3.698,3.6978,3.6977,3.6976,3.6975,3.6845,3.6886,3.6894,3.6931,3.6941,3.6958,3.6996,3.6988,3.7023,3.7056,3.7036,3.7085,3.7096,3.7132,3.7141,3.7179,3.7148,3.7173,3.7178,3.7184,3.7191,3.7008,3.7185,3.7184,3.7184,3.7183,3.7183,0,3.703,3.7031,3.7066,3.7091,3.712,3.7081,3.7098,3.7125,3.7168,3.7181,3.721,3.7257,3.7294,3.7289,3.7322,3.7353,3.7336,3.7362,3.7358,3.7359,3.7219,3.7199,3.7375,3.7375,3.7375,3.7375,3.7375,3.7375,3.713,3.7197,3.7184,3.7255,3.7256,3.7302,3.7315,3.733,3.7339,3.7393,3.7423,3.7418,3.7423,3.7455,3.7487,3.7484,3.7497,3.7529,3.752,3.7388,3.7369,3.7351,3.7332,3.7533,3.7533,3.7656,3.7657,3.7658]},{"header":{"parameterUnit":"m.s-1","parameterCategory":1,"la1":30.2991,"la2":30.254,"lo1":-89.0895,"lo2":-89.0444,"dy":0.0017,"dx":0.0017,"nx":28,"ny":28,"refTime":"2025-05-28T03:00:00:Z","depth":0,"parameterNumber":3,"parameterNumberName":"V-component_of_WINDS"},"data":[0,0,0,0,0,0,0,0,0,0,0,0,0,0,0,0,0,0,0,0,0,0,0,0,0,0,0,0,0,0,0,0,0,0,0,0,0,0,0,0,0,0,0,0,0,0,0,0,0,0,0,0,0,0,0,0,0,0,5.3686,5.3687,0,5.3804,5.3806,5.3807,5.3768,5.3766,5.3763,5.3761,5.3876,5.3882,5.3887,0,0,0,0,0,0,0,0,0,0,0,0,0,5.342,5.3425,5.3686,5.3687,5.3689,5.3804,5.3806,5.3807,5.3769,5.3765,5.3762,5.3759,5.3874,5.3881,5.3887,0,0,0,0,0,0,0,0,0,0,0,0,0,5.3536,5.3427,5.3686,5.3684,5.3685,5.3804,5.3806,5.3808,5.3769,5.3765,5.3762,5.3758,5.3872,5.388,5.3888,5.4015,0,0,5.3913,5.3917,0,0,0,0,0,0,0,0,5.353,5.3546,5.3682,5.3684,5.3685,5.3768,5.3754,5.3877,5.377,5.3737,5.3761,5.3756,5.3843,5.3853,5.3884,5.402,5.4025,5.3914,5.3919,5.3922,5.3925,0,0,0,0,0,0,0,5.3522,5.3541,5.3733,5.3684,5.3686,5.3675,5.3687,5.3777,5.381,5.374,5.3737,5.3752,5.3843,5.3876,5.3886,5.4027,5.3914,5.3921,5.3926,5.3929,5.427,5.4274,0,0,0,0,0,0,5.3514,5.3534,5.3729,5.3736,5.3597,5.3682,5.3696,5.3745,5.3809,5.3815,5.3755,5.375,5.3864,5.3877,5.389,5.404,5.3922,5.393,5.3935,5.4266,5.4271,5.4276,0,0,0,0,0,0,5.3508,5.3532,5.3724,5.3635,5.3658,5.3691,5.3746,5.3749,5.3782,5.382,5.3825,5.3783,5.3861,5.3878,5.3984,5.4044,5.3934,5.3941,5.4261,5.4268,5.4273,5.4343,0,0,0,0,0,0,5.3501,5.353,5.358,5.3636,5.3663,5.3818,5.375,5.3754,5.3797,5.3791,5.3848,5.3854,5.386,5.3972,5.3992,5.4053,5.3948,5.4256,5.4264,5.4271,5.4336,5.4351,5.4364,0,0,0,0,0,5.3491,5.3594,5.3583,5.3606,5.3727,5.3822,5.3837,5.3843,5.3802,5.3851,5.3876,5.3852,5.4034,5.3983,5.4005,5.407,5.4252,5.4262,5.4271,5.4329,5.4348,5.4364,0,0,0,0,0,0,5.3543,5.3602,5.3589,5.3714,5.3764,5.3815,5.3878,5.3863,5.3924,5.3916,5.3919,5.3932,5.404,5.4066,5.4007,5.4194,5.4137,5.4151,5.4173,5.4192,5.4206,5.4196,5.3954,0,0,0,0,0,5.3569,5.3643,5.369,5.3795,5.382,5.3845,5.3887,5.3887,5.3938,5.3958,5.399,5.4038,5.4105,5.415,5.4215,5.4339,5.4349,5.4394,5.4409,5.442,5.4432,5.4497,5.4516,5.4306,5.4306,5.4306,0,0,5.3623,5.3664,5.3711,5.3806,5.3845,5.3919,5.3863,5.3944,5.3999,5.397,5.4071,5.4096,5.415,5.4265,5.4317,5.4289,5.4492,5.4432,5.4441,5.4446,5.4508,5.4528,5.4546,5.4313,5.4312,5.4311,0,0,5.3759,5.3799,5.389,5.393,5.3989,5.4004,5.4026,5.408,5.4096,5.4198,5.4177,5.4241,5.4358,5.4397,5.4432,5.4581,5.456,5.4602,5.4676,5.4739,5.4755,5.477,5.4821,5.4839,5.4614,5.4614,5.4614,0,5.3818,5.3931,5.3938,5.4021,5.4062,5.4041,5.4131,5.4169,5.4246,5.4273,5.4242,5.4388,5.4423,5.4545,5.4581,5.4611,5.4634,5.4595,5.4753,5.4768,5.4781,5.4829,5.4849,5.4618,5.4618,5.4617,5.4617,0,5.3999,5.4078,5.4144,5.422,5.4269,5.4355,5.4373,5.4421,5.4417,5.4435,5.4537,5.4579,5.465,5.468,5.4676,5.4801,5.4781,5.4752,5.4694,5.4806,5.4851,5.487,5.4625,5.4623,5.4622,5.4621,0,0,5.4171,5.4249,5.4273,5.4306,5.4369,5.4429,5.4513,5.4584,5.4624,5.4678,5.4746,5.4846,5.4818,5.4858,5.4858,5.4914,5.5026,5.4877,5.4878,5.4901,5.5163,5.5184,5.5205,5.5014,5.5017,5.502,5.5158,0,5.431,5.446,5.4468,5.4603,5.4674,5.4654,5.4727,5.4772,5.4791,5.4852,5.4872,5.4941,5.4901,5.4924,5.4979,5.5001,5.5078,5.4992,5.5075,5.5078,5.506,5.5229,5.5252,5.538,5.5176,5.5179,5.5181,0,5.4493,5.4553,5.4695,5.4747,5.4777,5.4842,5.4907,5.4967,5.5017,5.5026,5.507,5.5062,5.5145,5.5086,5.5199,5.514,5.5174,5.519,5.5195,5.5202,5.5135,5.5238,5.5421,5.5439,5.5209,5.5207,5.5205,0,5.4601,5.4717,5.4817,5.4846,5.4909,5.4955,5.4983,5.5029,5.5071,5.5127,5.5153,5.5218,5.5253,5.5302,5.5311,5.5267,5.5423,5.5365,5.5431,5.5431,5.5463,5.5461,5.5652,5.5489,5.5489,5.5489,5.5488,0,5.4754,5.4842,5.4865,5.4927,5.5023,5.503,5.5124,5.5149,5.519,5.5253,5.524,5.5299,5.5308,5.5369,5.5376,5.5467,5.5484,5.5492,5.5492,5.5492,5.5491,5.5513,5.5504,5.5494,5.5493,5.5492,5.5491,0,5.489,5.491,5.5017,5.5068,5.5083,5.5151,5.5193,5.5251,5.5268,5.5348,5.5367,5.5394,5.5464,5.5478,5.5562,5.5566,5.5674,5.5667,5.5658,5.5656,5.572,5.5713,5.5931,5.5959,5.578,5.5782,5.5783,0,5.4986,5.5053,5.5111,5.5153,5.5184,5.5252,5.5295,5.5304,5.5349,5.541,5.5459,5.5528,5.5584,5.5698,5.5723,5.5786,5.5778,5.585,5.5788,5.5785,5.5777,5.5772,5.5777,5.5862,5.5864,5.5865,5.5867,0,5.5153,5.5159,5.5223,5.5289,5.5341,5.5393,5.5442,5.5477,5.5492,5.5543,5.5616,5.5659,5.5745,5.5813,5.5876,5.5901,5.5886,5.5886,5.5904,5.5904,5.5895,5.5898,5.5688,5.5881,5.588,5.5878,5.5878,5.5877,5.527,5.5328,5.5377,5.5447,5.5486,5.5532,5.5588,5.5612,5.5674,5.5745,5.5746,5.5825,5.5871,5.5954,5.5984,5.6044,5.6021,5.6048,5.6054,5.606,5.6065,5.5887,5.6056,5.6055,5.6055,5.6055,5.6054,0,5.5434,5.5465,5.553,5.56,5.5655,5.5637,5.5691,5.5737,5.5807,5.5852,5.5908,5.599,5.6056,5.6086,5.615,5.6193,5.6187,5.6209,5.6205,5.621,5.6083,5.606,5.6212,5.6212,5.6212,5.6212,5.6212,5.6212,5.5526,5.5622,5.5634,5.5748,5.5777,5.5856,5.5888,5.5929,5.5965,5.6058,5.6114,5.6134,5.6172,5.6239,5.6297,5.6304,5.6327,5.6352,5.6356,5.6236,5.622,5.6204,5.6183,5.6358,5.6358,5.6477,5.6479,5.6479]}]]